{"data":{"norad_id":43711,"intl_designator":"2018-094B","name":"SHIYAN-6 01 (SY-6 01)","alt_names":[],"object_type":"PAYLOAD","status":"ACTIVE","operator":null,"country":"PRC","launch_date":"2018-11-19","launch_site_code":"JSC","launch_vehicle":null,"mission":null,"orbit_class":"UNKNOWN","rcs_meters":null,"size_class":null,"mass_kg":null,"dimensions":null,"purposes":[],"wikipedia_slug":null,"has_3d_model":false,"image_url":null,"decayed_at":null,"tle_current":{"epoch":"2026-05-25T00:05:04.248960Z","epoch_age_seconds":71974,"freshness":"FRESH","line1":"1 43711U 18094B   26145.00352140  .00004198  00000+0  14954-3 0  9998","line2":"2 43711  97.3601 159.3679 0011523 224.9478 135.0830 15.29430443417942","mean_motion":15.29430443,"eccentricity":0.0011523,"inclination_deg":97.3601,"raan_deg":159.3679,"arg_perigee_deg":224.9478,"mean_anomaly_deg":135.083,"bstar":0.00014954,"rev_number":41794,"period_min":94.152696292315,"perigee_km":469.61402490819,"apogee_km":485.41355772185,"semimajor_km":6855.650791315,"source":"CELESTRAK","updated_at":"2026-05-25T13:37:55.889820Z"}}}